FW8740 Weather Reports


Display with metric or nautical units.
time (UTC)temp
F
wind
direction
speed
MPH
gust
MPH
rain 1hr
in
rain 24hr
in
rain mn
in
humidity
%
barometer
mb
20260503014249 51 92 1.0 2.0 0.00 0.05 0.05 52 1014.4
20260503013747 51 90 0.0 2.0 0.00 0.05 0.05 52 1014.0
20260503013244 51 86 0.0 2.0 0.00 0.05 0.05 51 1014.3
20260503012741 51 93 1.0 2.0 0.00 0.05 0.05 51 1014.3
20260503012238 51 69 1.0 2.0 0.00 0.05 0.05 50 1014.1
20260503011735 51 77 2.0 3.0 0.00 0.05 0.05 50 1014.1
20260503011232 51 58 2.0 6.0 0.00 0.05 0.05 49 1014.1
20260503010728 52 68 3.0 3.0 0.00 0.05 0.05 48 1014.0
20260503010225 52 70 3.0 6.0 0.00 0.05 0.05 47 1013.9
20260503005723 52 46 3.0 3.0 0.00 0.05 0.05 47 1014.0
20260503005220 52 86 1.0 3.0 0.00 0.05 0.05 48 1013.9
20260503004716 52 56 1.0 2.0 0.00 0.05 0.05 47 1013.8
20260503004214 52 44 1.0 3.0 0.00 0.05 0.05 46 1013.7
20260503003711 52 52 1.0 2.0 0.00 0.05 0.05 47 1013.8
20260503003208 52 37 3.0 5.0 0.00 0.05 0.05 47 1013.6
20260503002705 52 58 1.0 3.0 0.00 0.05 0.05 46 1013.7
20260503002202 52 39 3.0 3.0 0.00 0.05 0.05 47 1013.7
20260503001657 53 62 0.0 1.0 0.00 0.05 0.05 47 1013.6
20260503001154 53 86 1.0 1.0 0.00 0.05 0.05 47 1013.6
20260503000652 52 70 0.0 2.0 0.00 0.05 0.05 48 1013.6
20260503000149 53 3 2.0 2.0 0.00 0.05 0.05 48 1013.6
20260502235646 53 91 0.0 3.0 0.00 0.05 0.05 47 1013.5
20260502235144 53 52 1.0 5.0 0.00 0.05 0.05 47 1013.4
20260502234639 53 92 1.0 1.0 0.00 0.05 0.05 48 1013.7
20260502234137 54 96 0.0 1.0 0.00 0.05 0.05 46 1013.2
20260502233633 54 50 1.0 1.0 0.00 0.05 0.05 46 1013.3
20260502233130 54 74 1.0 3.0 0.00 0.05 0.05 46 1013.5
20260502232626 54 99 0.0 2.0 0.00 0.05 0.05 46 1013.3
20260502232124 55 87 1.0 2.0 0.00 0.05 0.05 46 1013.2
20260502231620 55 91 0.0 1.0 0.00 0.05 0.05 46 1013.1
20260502231118 55 81 0.0 2.0 0.00 0.05 0.05 46 1013.1
20260502230616 55 78 2.0 2.0 0.00 0.05 0.05 47 1013.0
20260502230114 55 258 2.0 3.0 0.00 0.05 0.05 49 1013.0
20260502225609 55 120 1.0 1.0 0.00 0.05 0.05 48 1013.1
20260502225107 56 80 0.0 2.0 0.00 0.05 0.05 48 1013.2
20260502224603 55 103 0.0 1.0 0.00 0.05 0.05 50 1013.0
20260502224100 56 104 0.0 1.0 0.00 0.05 0.05 49 1013.0
20260502223558 56 104 0.0 1.0 0.00 0.05 0.05 48 1013.1
20260502223056 56 94 0.0 1.0 0.00 0.05 0.05 46 1013.1
20260502222553 56 68 0.0 1.0 0.00 0.05 0.05 48 1012.9
20260502222049 57 99 0.0 1.0 0.00 0.05 0.05 46 1012.8
20260502221545 57 143 1.0 2.0 0.00 0.05 0.05 45 1012.9
20260502221042 56 101 1.0 1.0 0.00 0.05 0.05 45 1013.0
20260502220538 57 38 3.0 3.0 0.00 0.05 0.05 44 1012.8
20260502220035 57 88 1.0 1.0 0.00 0.05 0.05 43 1012.8
20260502215532 58 24 2.0 3.0 0.00 0.05 0.05 43 1012.8
20260502215029 60 83 1.0 3.0 0.00 0.05 0.05 40 1012.9
20260502214526 61 105 1.0 5.0 0.00 0.05 0.05 41 1012.8
20260502214024 61 78 1.0 5.0 0.00 0.05 0.05 42 1012.7
20260502213520 61 274 2.0 6.0 0.00 0.05 0.05 41 1012.7
20260502213018 61 29 2.0 2.0 0.00 0.05 0.05 41 1012.5
20260502212516 61 107 1.0 3.0 0.00 0.05 0.05 41 1012.8
20260502212014 60 248 3.0 6.0 0.00 0.05 0.05 41 1012.6
20260502211509 60 293 7.0 9.0 0.00 0.05 0.05 40 1012.6
20260502211007 60 29 2.0 6.0 0.00 0.05 0.05 42 1012.5
20260502210503 60 83 1.0 9.0 0.00 0.05 0.05 42 1012.5
20260502210000 59 116 2.0 2.0 0.00 0.05 0.05 43 1012.4
20260502205456 58 97 2.0 5.0 0.00 0.05 0.05 43 1012.5
20260502204954 59 89 0.0 5.0 0.00 0.05 0.05 45 1012.6
20260502204451 59 72 1.0 5.0 0.00 0.05 0.05 44 1012.6
20260502203949 60 83 2.0 2.0 0.00 0.05 0.05 45 1012.6
20260502203446 60 247 2.0 3.0 0.00 0.05 0.05 45 1012.9
20260502202942 59 257 2.0 5.0 0.00 0.05 0.05 46 1012.7
20260502202439 58 251 3.0 3.0 0.00 0.05 0.05 46 1012.5
20260502201937 59 359 2.0 5.0 0.00 0.05 0.05 46 1012.7
20260502201432 59 44 2.0 6.0 0.00 0.05 0.05 47 1012.9
20260502200929 59 103 0.0 1.0 0.00 0.05 0.05 49 1013.0
20260502200425 57 247 3.0 7.0 0.00 0.05 0.05 49 1013.0
20260502195923 58 352 2.0 3.0 0.00 0.05 0.05 52 1013.1
20260502195420 58 44 2.0 3.0 0.00 0.05 0.05 51 1013.3
20260502194916 58 31 1.0 3.0 0.00 0.05 0.05 54 1013.1
20260502194413 57 320 3.0 3.0 0.00 0.05 0.05 54 1013.3
20260502193909 59 54 2.0 2.0 0.00 0.05 0.05 58 1013.2
20260502193407 58 95 0.0 2.0 0.00 0.05 0.05 60 1013.3
20260502192901 57 77 0.0 1.0 0.00 0.05 0.05 60 1013.6
20260502192359 56 104 1.0 5.0 0.00 0.05 0.05 62 1013.6
20260502191856 57 67 3.0 5.0 0.00 0.05 0.05 62 1013.7
20260502191354 57 83 3.0 5.0 0.00 0.05 0.05 63 1013.5
20260502190851 56 93 1.0 2.0 0.00 0.05 0.05 63 1013.9
20260502190348 57 40 1.0 5.0 0.00 0.05 0.05 63 1013.8
20260502185844 58 111 1.0 3.0 0.00 0.05 0.05 63 1013.9
20260502185340 59 54 1.0 2.0 0.00 0.05 0.05 64 1014.0
20260502184837 58 105 1.0 1.0 0.00 0.05 0.05 67 1013.8
20260502184332 56 58 2.0 3.0 0.00 0.05 0.05 67 1014.1
20260502183829 57 55 2.0 3.0 0.00 0.05 0.05 67 1014.3
20260502183325 57 54 1.0 1.0 0.00 0.05 0.05 68 1014.0
20260502182820 55 107 0.0 1.0 0.00 0.05 0.05 69 1014.1
20260502182316 56 62 1.0 3.0 0.00 0.05 0.05 69 1014.1
20260502181813 55 111 2.0 3.0 0.00 0.05 0.05 69 1014.1
20260502181312 55 51 2.0 3.0 0.00 0.05 0.05 70 1014.3
20260502180809 55 85 2.0 3.0 0.00 0.05 0.05 70 1014.1
20260502180307 54 37 2.0 5.0 0.00 0.05 0.05 70 1014.1
20260502170226 56 328 4.0 6.0 0.00 0.05 0.05 66 1014.2
20260502164213 54 90 3.0 7.0 0.00 0.05 0.05 70 1014.6
20260502163708 55 45 3.0 3.0 0.00 0.05 0.05 71 1014.4
20260502163205 55 26 2.0 3.0 0.00 0.05 0.05 72 1014.7
20260502162702 55 40 1.0 2.0 0.00 0.05 0.05 72 1014.7
20260502162158 55 107 1.0 2.0 0.00 0.05 0.05 73 1014.7
20260502161656 54 90 1.0 3.0 0.00 0.05 0.05 74 1014.6
20260502161152 55 72 3.0 5.0 0.00 0.05 0.05 74 1014.8
20260502160651 56 93 0.0 2.0 0.00 0.05 0.05 75 1014.6
20260502160150 55 100 1.0 3.0 0.00 0.05 0.05 76 1014.9
20260502152109 53 33 2.0 5.0 0.00 0.05 0.05 85 1014.9
20260502151606 52 105 3.0 3.0 0.00 0.05 0.05 86 1014.9
20260502151104 53 334 4.0 5.0 0.00 0.05 0.05 87 1014.9
20260502150601 53 103 0.0 5.0 0.00 0.05 0.05 87 1014.8
20260502130446 49 90 0.0 1.0 0.00 0.05 0.05 93 1015.3
20260502123428 48 102 0.0 1.0 0.00 0.05 0.05 93 1015.1
20260502122926 48 101 0.0 1.0 0.00 0.05 0.05 93 1015.4
20260502122422 48 120 0.0 0.0 0.00 0.05 0.05 93 1015.3
20260502121920 49 101 0.0 0.0 0.00 0.05 0.05 93 1015.0
20260502121417 48 99 0.0 0.0 0.00 0.05 0.05 93 1014.8
20260502120914 48 104 0.0 0.0 0.00 0.05 0.05 93 1014.8
20260502120410 48 102 0.0 0.0 0.00 0.05 0.05 93 1015.0
20260502115908 48 106 0.0 0.0 0.00 0.05 0.05 93 1014.9
20260502115405 48 117 0.0 0.0 0.00 0.05 0.05 93 1015.1
20260502114901 48 112 0.0 0.0 0.00 0.05 0.05 93 1015.2
20260502114358 47 111 0.0 0.0 0.00 0.05 0.05 93 1015.0
20260502113855 47 107 0.0 0.0 0.00 0.05 0.05 93 1015.1
20260502113352 48 122 0.0 0.0 0.00 0.05 0.05 93 1015.0
20260502112851 47 123 0.0 1.0 0.00 0.05 0.05 93 1015.2
20260502112348 47 104 0.0 0.0 0.00 0.05 0.05 93 1015.0
20260502111845 47 100 0.0 0.0 0.00 0.05 0.05 93 1014.8
20260502111342 47 98 0.0 0.0 0.00 0.05 0.05 93 1015.0
20260502110840 47 101 0.0 0.0 0.00 0.05 0.05 93 1014.7
20260502110338 47 104 0.0 0.0 0.00 0.05 0.05 93 1014.9
20260502105835 46 103 0.0 0.0 0.00 0.05 0.05 93 1014.5
20260502105332 46 104 0.0 0.0 0.00 0.05 0.05 93 1014.5
20260502104830 46 104 0.0 0.0 0.00 0.05 0.05 93 1014.6
20260502104327 46 101 0.0 0.0 0.00 0.05 0.05 92 1014.7
20260502103824 46 103 0.0 0.0 0.00 0.05 0.05 92 1014.5
20260502103321 46 105 0.0 0.0 0.00 0.05 0.05 92 1014.4
20260502102818 47 108 0.0 0.0 0.00 0.05 0.05 92 1014.7
20260502102314 47 113 0.0 0.0 0.00 0.05 0.05 92 1014.5
20260502101813 47 116 0.0 2.0 0.00 0.05 0.05 92 1014.3
20260502101310 47 130 0.0 1.0 0.05 0.05 0.05 92 1014.5
20260502100809 47 123 1.0 1.0 0.12 0.05 0.05 92 1014.5
20260502100308 47 111 0.0 0.0 0.14 0.04 0.04 92 1014.7
20260502091241 47 114 0.0 1.0 0.00 0.01 0.01 91 1014.2
20260502090738 47 114 0.0 0.0 0.00 0.01 0.01 91 1014.4
20260502090235 47 107 0.0 1.0 0.00 0.01 0.01 91 1014.7
20260502071136 47 113 0.0 0.0 0.00 0.00 0.00 89 1014.3
20260502070634 46 123 0.0 0.0 0.00 0.00 0.00 89 1014.4
20260502070132 47 119 0.0 0.0 0.00 0.00 0.00 89 1014.4
20260502065630 47 121 0.0 0.0 0.00 0.00 0.00 89 1014.5
20260502065127 46 108 0.0 0.0 0.00 0.00 0.00 89 1014.4
20260502064626 46 105 0.0 0.0 0.00 0.00 0.00 89 1014.2
20260502064122 46 105 0.0 0.0 0.00 0.00 0.00 89 1014.4
20260502063620 46 106 0.0 0.0 0.00 0.00 0.00 89 1014.5
20260502063117 46 105 0.0 0.0 0.00 0.00 0.00 89 1014.4
20260502062614 46 104 0.0 0.0 0.00 0.00 0.00 88 1014.5
20260502062112 46 103 0.0 0.0 0.00 0.00 0.00 88 1014.4
20260502061610 46 105 0.0 0.0 0.00 0.00 0.00 88 1014.5
20260502061108 47 106 0.0 0.0 0.00 0.00 0.00 88 1014.5
20260502060607 47 107 0.0 0.0 0.00 0.00 0.00 88 1014.6
20260502060105 47 111 0.0 0.0 0.00 0.00 0.00 88 1014.5
20260502055602 47 110 0.0 0.0 0.00 0.00 0.00 88 1014.7
20260502055100 47 109 0.0 0.0 0.00 0.00 0.00 88 1014.7
20260502054559 47 107 0.0 0.0 0.00 0.00 0.00 88 1014.6
20260502054055 47 106 0.0 0.0 0.00 0.00 0.00 88 1014.8
20260502053552 47 109 0.0 0.0 0.00 0.00 0.00 88 1014.9
20260502053050 47 118 0.0 0.0 0.00 0.00 0.00 88 1014.7
20260502052549 47 125 1.0 1.0 0.00 0.00 0.00 88 1014.8
20260502052046 47 110 0.0 0.0 0.00 0.00 0.00 87 1014.6
20260502051544 47 109 0.0 0.0 0.00 0.00 0.00 87 1014.7
20260502051042 47 123 0.0 0.0 0.00 0.00 0.00 87 1014.6
20260502050537 48 123 0.0 1.0 0.00 0.00 0.00 87 1014.6
20260502050035 48 115 0.0 0.0 0.00 0.00 0.00 87 1014.8
20260502045531 48 114 0.0 0.0 0.00 0.00 0.00 87 1014.7
20260502045029 48 113 0.0 0.0 0.00 0.00 0.00 87 1014.8
20260502044525 48 111 0.0 0.0 0.00 0.00 0.00 87 1014.7
20260502044021 48 120 0.0 1.0 0.00 0.00 0.00 87 1014.7
20260502043519 48 127 1.0 1.0 0.00 0.00 0.00 87 1014.5
20260502043015 48 121 0.0 1.0 0.00 0.00 0.00 86 1015.0
20260502042510 49 122 0.0 0.0 0.00 0.00 0.00 87 1014.9
20260502042008 48 163 1.0 2.0 0.00 0.00 0.00 87 1014.9
20260502041506 48 132 0.0 1.0 0.00 0.00 0.00 86 1014.7
20260502041003 48 153 1.0 2.0 0.00 0.00 0.00 86 1014.9
20260502040459 49 138 1.0 1.0 0.00 0.00 0.00 86 1014.9
20260502035955 49 188 2.0 2.0 0.00 0.00 0.00 86 1014.9
20260502035451 49 161 1.0 2.0 0.00 0.00 0.00 86 1014.8
20260502034949 49 137 0.0 1.0 0.00 0.00 0.00 86 1014.8
20260502034448 48 149 1.0 2.0 0.00 0.00 0.00 86 1014.8
20260502033946 48 146 1.0 2.0 0.00 0.00 0.00 86 1014.6
20260502033443 48 138 1.0 1.0 0.00 0.00 0.00 86 1014.7
20260502032939 48 154 1.0 2.0 0.00 0.00 0.00 86 1014.7
20260502032436 48 150 1.0 2.0 0.00 0.00 0.00 86 1014.9
20260502031933 47 192 1.0 2.0 0.00 0.00 0.00 86 1015.0
20260502031432 47 150 1.0 2.0 0.00 0.00 0.00 86 1015.1
20260502030930 47 156 2.0 2.0 0.00 0.00 0.00 86 1015.1
20260502030428 47 139 1.0 2.0 0.00 0.00 0.00 86 1015.0
20260502025925 46 148 1.0 1.0 0.00 0.00 0.00 85 1015.1
20260502025422 46 128 0.0 2.0 0.00 0.00 0.00 85 1015.2
20260502024920 46 174 1.0 2.0 0.00 0.00 0.00 85 1015.1
20260502024418 46 184 2.0 2.0 0.00 0.00 0.00 84 1014.9
20260502023915 47 138 1.0 2.0 0.00 0.00 0.00 84 1015.2
20260502023413 47 117 0.0 0.0 0.00 0.00 0.00 84 1015.1
20260502022910 47 118 0.0 0.0 0.00 0.00 0.00 83 1015.1
20260502022406 47 113 0.0 0.0 0.00 0.00 0.00 83 1015.2
20260502021903 47 125 0.0 1.0 0.00 0.00 0.00 82 1015.4
20260502021401 48 113 0.0 0.0 0.00 0.00 0.00 82 1015.0
20260502020858 48 118 0.0 0.0 0.00 0.00 0.00 82 1015.1
20260502020356 48 131 1.0 1.0 0.00 0.00 0.00 82 1015.1
20260502015852 48 130 0.0 2.0 0.00 0.00 0.00 82 1015.1
20260502015349 48 147 1.0 2.0 0.00 0.00 0.00 81 1015.3
20260502014847 48 141 1.0 2.0 0.00 0.00 0.00 80 1015.2